Location: Heiligenberg
(48.5381°N, 7.3897°E)
Time: 19:57:33
(UTC+00:00)

USA 306 - Pass Details

Date: 26 May 2022
Orbit: 545 x 556 km, 54.0° (Epoch: 20 June)

Event Time Altitude Azimuth Distance (km) Brightness Sun altitude
Exits shadow 00:06:55 37° 132° (SE) 876 3.5 -19.8°
Drops below altitude 10° 00:10:35 10° 72° (ENE) 1,844 5.8 -19.7°
Sets 00:12:56 0° 64° (ENE) 2,746 6.9 -19.6°
